{"data":{"norad_id":66095,"intl_designator":"2025-236K","name":"STARLINK-35559","alt_names":[],"object_type":"PAYLOAD","status":"ACTIVE","operator":null,"country":"US","launch_date":"2025-10-19","launch_site_code":"AFWTR","launch_vehicle":null,"mission":null,"orbit_class":"UNKNOWN","rcs_meters":null,"size_class":null,"mass_kg":null,"dimensions":null,"purposes":["comms"],"wikipedia_slug":null,"has_3d_model":false,"image_url":null,"decayed_at":null,"tle_current":{"epoch":"2026-09-20T08:18:50.027904Z","epoch_age_seconds":116289,"freshness":"FRESH","line1":"1 66095U 25236K   26263.34641236  .00009141  00000+0  28134-3 0  9997","line2":"2 66095  53.1589 278.5599 0001697  83.6125 276.5071 15.34401099 52766","mean_motion":15.34401099,"eccentricity":0.0001697,"inclination_deg":53.1589,"raan_deg":278.5599,"arg_perigee_deg":83.6125,"mean_anomaly_deg":276.5071,"bstar":0.00028134,"rev_number":5276,"period_min":93.847690863782,"perigee_km":461.53908371501,"apogee_km":463.8608637839,"semimajor_km":6840.8369737495,"source":"CELESTRAK","updated_at":"2026-09-21T09:00:35.801978Z"}}}